Terminal Aerodrome Forecast
Issued by NWS Dallas/Fort Worth, TX

Home | Current Version | Previous Version | Text Only | Print | Product List | Glossary On
Versions: 1 2 3 4 5 6 7 8 9 10 11 12 13 14 15 16 17 18 19 20 21 22 23 24 25 26 27 28 29 30 31
000
FTUS44 KFWD 282320
TAFACT
TAF
KACT 282320Z 2900/2924 13010KT P6SM SCT040
     FM290300 14007KT P6SM OVC012
     FM290600 16007KT P6SM VCSH OVC008
     FM291200 15007KT P6SM OVC011
     FM291600 16007KT P6SM BKN040=

USA.gov is the U.S. government's official web portal to all federal, state and local government web resources and services.